Flag for U.S.A. Weather past 2 weeks in Livonia, Michigan, U.S.A.

36 °F

Light rain. Overcast.

Feels Like: 30 °F
Forecast: 32 / 42 °F
Wind: 8 mph from North

Location: Detroit Metropolitan Wayne County Airport

Current Time: Nov 28, 2015 at 12:59:39 AM

Latest Report: Nov 27, 2015 at 11:53 PM

Visibility: 10 mi

Pressure: 30.38 "Hg

Humidity: 89%

Dew point: 33 °F

Location of LivoniaLocation

Historic Weather in Livonia — Graph


Livonia temperature yesterday

Maximum temperature yesterday: 61 °F (at 12:53 AM)
Minimum temperature yesterday: 36 °F (at 10:00 PM)
Average temperature yesterday: 50 °F

Past Weeks' High & Low Weather Summary

High65 °F (Nov 15, 2:53 PM)97% (Nov 18, 2:53 PM)30.47 "Hg (Nov 18, 2:53 PM)
Low21 °F (Nov 22, 10:53 PM)24% (Nov 19, 5:53 PM)29.67 "Hg (Nov 12, 10:53 PM)
Average44 °F66%30.16 "Hg
* Reported Nov 12 10:53 PM — Nov 27 10:53 PM, Livonia, Weather by CustomWeather, © 2015

Note: Actual official high and low records may vary slightly from our data, if they occured in-between our weather recording intervals... More about our weather records


Livonia weather history for previous 24 hours

Time TempWeatherWind HumidityBarometerVisibility
10:53 PM
Fri, Nov 27
36 °FLight rain. Mostly cloudy.9 mph89%30.38 "Hg7 mi
10:00 PM36 °FLight rain. Overcast.9 mph93%30.38 "Hg9 mi
8:53 PM36 °FRain. Fog.9 mph92%30.39 "Hg6 mi
7:53 PM37 °FLight rain. Overcast.12 mph93%30.39 "Hg7 mi
6:53 PM38 °FLight rain. Overcast.10 mph90%30.37 "Hg10 mi
5:56 PM39 °FLight rain. Fog.12 mph93%30.34 "Hg2 mi
4:53 PM42 °FDrizzle. Fog.12 mph92%30.32 "Hg2 mi
3:53 PM43 °FDrizzle. Fog.12 mph93%30.29 "Hg2 mi
2:53 PM46 °FDrizzle. Fog.10 mph89%30.27 "Hg2 mi
2:00 PM48 °FLight rain. Fog.9 mph94%30.24 "Hg3 mi
12:53 PM56 °FLight rain. Fog.13 mph90%30.22 "Hg4 mi
11:53 AM55 °FLight rain. Fog.14 mph93%30.24 "Hg4 mi
10:53 AM54 °FLight rain. Fog.14 mph93%30.26 "Hg5 mi
9:53 AM55 °FRain. Fog.15 mph87%30.24 "Hg3 mi
8:53 AM55 °FLight rain. Cloudy.17 mph87%30.23 "Hg8 mi
7:53 AM55 °FLight rain. Cloudy.18 mph87%30.23 "Hg8 mi
6:53 AM55 °FRain. Mostly cloudy.22 mph83%30.24 "Hg7 mi
5:53 AM60 °FLight rain. Mostly cloudy.21 mph60%30.23 "Hg8 mi
4:53 AM58 °FMostly cloudy.14 mph62%30.22 "Hg10 mi
3:53 AM58 °FMostly cloudy.13 mph62%30.24 "Hg10 mi
2:53 AM59 °FMostly cloudy.13 mph58%30.26 "Hg10 mi
1:53 AM60 °FMostly cloudy.17 mph56%30.27 "Hg10 mi
12:53 AM61 °FMostly cloudy.20 mph54%30.27 "Hg10 mi
Weather by CustomWeather, © 2015

See weather overviewHow to use our weather pages